Weather History for Memphis, TN

Change the Weather History Date:

Saturday, July 12, 2014

  Actual Average Record
Temperature  
Mean Temperature 84 °F 83 °F  
Max Temperature 94 °F 92 °F 106 °F (1930)
Min Temperature 74 °F 74 °F 63 °F (1957)
Degree Days  
Heating Degree Days 0 0  
Month to date heating degree days 0 0  
Since 1 June heating degree days 0 0  
Since 1 July heating degree days 0 0  
Cooling Degree Days 19 18  
Month to date cooling degree days 173 212  
Year to date cooling degree days 921 971  
Since 1 June cooling degree days 610 650  
Growing Degree Days 33 (Base 50)    
Moisture  
Dew Point 71 °F    
Average Humidity 71    
Maximum Humidity 93    
Minimum Humidity 49    
Precipitation  
Precipitation T in 0.15 in 4.56 in (2010)
Month to date precipitation 0.99 1.69  
Year to date precipitation 40.35 29.60  
Snow  
Snow 0.00 in 0.00 in - ()
Month to date snowfall 0.0 0.0  
Since 1 June snowfall 0.0 0.0  
Since 1 July snowfall 0.0 0.0  
Snow Depth 0.00 in    
Sea Level Pressure  
Sea Level Pressure 30.12 in    
Wind  
Wind Speed 3 mph (SSW)    
Max Wind Speed 12 mph    
Max Gust Speed 14 mph    
Visibility 10 miles    
Events      
T = Trace of Precipitation, MM = Missing Value Source: NWS Daily Summary

Daily Weather History Graph

Daily Weather History Graph

Search for Another Location

Airport:

Trip Planner

Search our weather history database for the weather conditions in past years. The results will help you decide how hot, cold, wet, or windy it might be!

Date:

Astronomy

Jul. 12, 2014 Rise Set
Actual Time 5:55 AM CDT 8:15 PM CDT
Civil Twilight 5:26 AM CDT 8:44 PM CDT
Nautical Twilight 4:50 AM CDT 9:20 PM CDT
Astronomical Twilight 4:11 AM CDT 9:59 PM CDT
Moon 8:22 PM CDT (7/12) 6:11 AM CDT (7/12)
Length of Visible Light 15h 18m
Length of Day
14h 20m
Full, 100% of the Moon is Illuminated
Jul 12
Full
Jul 18
Last Quarter
Jul 26
New
Aug 3
First Quarter
Aug 10
Full

Hourly Weather History & Observations

Time (CDT) Temp. Heat Index Dew Point Humidity Pressure Visibility Wind Dir Wind Speed Gust Speed Precip Events Conditions
12:54 AM 77.0 °F - 72.0 °F 84% 30.14 in 10.0 mi Calm Calm - N/A   Clear
1:54 AM 75.9 °F - 72.0 °F 87% 30.13 in 10.0 mi Calm Calm - N/A   Clear
2:54 AM 75.0 °F - 72.0 °F 90% 30.12 in 10.0 mi Calm Calm - N/A   Clear
3:54 AM 73.9 °F - 71.1 °F 91% 30.12 in 10.0 mi Calm Calm - N/A   Clear
4:54 AM 75.0 °F - 72.0 °F 90% 30.13 in 10.0 mi Calm Calm - N/A   Clear
5:54 AM 75.0 °F - 71.1 °F 87% 30.14 in 9.0 mi Calm Calm - N/A   Partly Cloudy
6:54 AM 75.9 °F - 72.0 °F 87% 30.16 in 8.0 mi Calm Calm - N/A   Clear
7:54 AM 80.1 °F 84.5 °F 73.9 °F 81% 30.18 in 9.0 mi West 3.5 mph - N/A   Partly Cloudy
8:54 AM 82.9 °F 88.8 °F 73.0 °F 72% 30.19 in 10.0 mi West 3.5 mph - N/A   Partly Cloudy
9:54 AM 84.9 °F 90.7 °F 72.0 °F 65% 30.17 in 10.0 mi Calm Calm - N/A   Partly Cloudy
10:54 AM 87.1 °F 92.8 °F 71.1 °F 59% 30.17 in 10.0 mi Calm Calm - N/A   Partly Cloudy
11:54 AM 90.0 °F 96.9 °F 72.0 °F 55% 30.15 in 10.0 mi Calm Calm - N/A   Scattered Clouds
12:54 PM 91.0 °F 95.6 °F 69.1 °F 48% 30.14 in 10.0 mi Calm Calm - N/A   Scattered Clouds
1:54 PM 90.0 °F 94.5 °F 69.1 °F 50% 30.13 in 10.0 mi Variable 3.5 mph - N/A   Scattered Clouds
2:54 PM 91.9 °F 97.4 °F 70.0 °F 48% 30.12 in 10.0 mi SSE 5.8 mph - N/A   Mostly Cloudy
3:54 PM 90.0 °F 94.5 °F 69.1 °F 50% 30.11 in 10.0 mi Variable 4.6 mph - 0.00 in   Mostly Cloudy
4:54 PM 91.0 °F 97.6 °F 71.1 °F 52% 30.08 in 10.0 mi South 8.1 mph - N/A   Mostly Cloudy
5:54 PM 90.0 °F 96.4 °F 71.1 °F 54% 30.07 in 10.0 mi South 8.1 mph - N/A   Scattered Clouds
6:54 PM 89.1 °F 94.1 °F 70.0 °F 53% 30.06 in 10.0 mi South 6.9 mph - N/A   Scattered Clouds
7:54 PM 86.0 °F 90.7 °F 70.0 °F 59% 30.07 in 10.0 mi SSW 4.6 mph - N/A   Scattered Clouds
8:54 PM 84.0 °F 88.4 °F 70.0 °F 63% 30.07 in 10.0 mi WSW 3.5 mph - N/A   Scattered Clouds
9:54 PM 82.0 °F 86.3 °F 71.1 °F 69% 30.07 in 10.0 mi SSW 4.6 mph - N/A   Partly Cloudy
10:54 PM 80.1 °F 83.6 °F 71.1 °F 74% 30.08 in 10.0 mi South 5.8 mph - N/A   Partly Cloudy
11:54 PM 80.1 °F 83.6 °F 71.1 °F 74% 30.09 in 10.0 mi SSW 3.5 mph - N/A   Partly Cloudy